OK,177,67,775,177,2014-10-01T01:40:00,0,28072545,197518
OK,177,67,775,177,2014-10-01T01:45:00,0,28072994,197518
OK,177,67,775,177,2014-10-01T01:55:00,0,28073441,197518
OK,177,67,775,177,2014-10-01T02:05:00,0,28074207,197518
OK,177,67,775,177,2014-10-01T02:10:00,0,28075096,197518
OK,177,67,775,177,2014-10-01T02:20:00,0,28075545,197518
OK,156,76,775,156,2014-10-01T02:30:00,0,28076377,197518
OK,156,76,775,156,2014-10-01T02:35:00,0,28076826,197518
OK,156,76,775,156,2014-10-01T02:40:00,0,28077275,197518
OK,156,76,775,156,2014-10-01T02:50:00,0,28078127,197518
OK,156,76,775,156,2014-10-01T02:55:00,0,28078576,197518
OK,156,76,775,156,2014-10-01T03:00:00,0,28079021,197518
OK,156,76,775,156,2014-10-01T03:05:00,0,28079469,197518
OK,308,38,775,308,2014-10-01T03:10:00,1,28079912,197518
OK,308,38,775,308,2014-10-01T03:20:00,0,28080695,197518
OK,308,38,775,308,2014-10-01T03:25:00,0,28081144,197518
OK,308,38,775,308,2014-10-01T03:30:00,0,28081592,197518
OK,308,38,775,308,2014-10-01T03:35:00,0,28082040,197518
OK,183,65,775,183,2014-10-01T03:40:00,1,28082489,197518
OK,254,47,775,254,2014-10-01T03:45:00,1,28082922,197518
OK,254,47,775,254,2014-10-01T03:50:00,0,28083354,197518
OK,214,56,775,214,2014-10-01T03:55:00,3,28083803,197518
OK,199,60,775,199,2014-10-01T04:00:00,4,28084252,197518
OK,195,61,775,195,2014-10-01T04:05:00,3,28084693,197518
OK,187,64,775,187,2014-10-01T04:10:00,1,28085118,197518
OK,190,63,775,190,2014-10-01T04:15:00,1,28085567,197518
OK,190,63,775,190,2014-10-01T04:20:00,1,28086012,197518
OK,204,58,775,204,2014-10-01T04:25:00,1,28086461,197518
OK,232,51,775,232,2014-10-01T04:30:00,3,28086903,197518
OK,256,46,775,256,2014-10-01T04:35:00,2,28087352,197518
OK,221,54,775,221,2014-10-01T04:40:00,3,28087797,197518
OK,245,48,775,245,2014-10-01T04:45:00,2,28088246,197518
OK,263,45,775,263,2014-10-01T04:50:00,3,28088670,197518
OK,209,57,775,209,2014-10-01T04:55:00,5,28089119,197518
OK,220,54,775,220,2014-10-01T05:00:00,6,28089549,197518
OK,227,52,775,227,2014-10-01T05:05:00,4,28089998,197518
OK,212,56,775,212,2014-10-01T05:10:00,4,28090447,197518
OK,225,53,775,225,2014-10-01T05:15:00,6,28090791,197518
OK,255,47,775,255,2014-10-01T05:20:00,8,28091240,197518
OK,249,48,775,249,2014-10-01T05:25:00,11,28091689,197518
OK,242,49,775,242,2014-10-01T05:30:00,9,28092106,197518
OK,260,46,775,260,2014-10-01T05:40:00,14,28092999,197518
OK,267,44,775,267,2014-10-01T05:45:00,12,28093440,197518
OK,277,43,775,277,2014-10-01T05:50:00,12,28093871,197518
OK,321,37,775,321,2014-10-01T05:55:00,14,28094319,197518
OK,337,35,775,337,2014-10-01T06:05:00,14,28095176,197518
OK,291,41,775,291,2014-10-01T06:10:00,14,28095623,197518
OK,254,47,775,254,2014-10-01T06:20:00,8,28096485,197518
OK,257,46,775,257,2014-10-01T06:25:00,8,28096934,197518
OK,242,49,775,242,2014-10-01T06:30:00,17,28097368,197518
OK,246,48,775,246,2014-10-01T06:35:00,17,28097817,197518
OK,253,47,775,253,2014-10-01T06:40:00,8,28098266,197518
OK,240,49,775,240,2014-10-01T06:45:00,4,28098703,197518
OK,245,48,775,245,2014-10-01T06:50:00,3,28099147,197518
OK,215,55,775,215,2014-10-01T07:00:00,4,28099938,197518
OK,213,56,775,213,2014-10-01T07:10:00,2,28100694,197518
OK,223,53,775,223,2014-10-01T07:20:00,3,28101514,197518
OK,214,56,775,214,2014-10-01T07:25:00,0,28101963,197518
OK,215,55,775,215,2014-10-01T07:30:00,3,28102399,197518
OK,215,55,775,215,2014-10-01T07:35:00,5,28102848,197518
OK,284,42,775,284,2014-10-01T07:40:00,4,28103275,197518
OK,226,53,775,226,2014-10-01T07:45:00,10,28103722,197518
OK,219,54,775,219,2014-10-01T07:50:00,8,28104167,197518
OK,233,51,775,233,2014-10-01T07:55:00,5,28104612,197518
OK,227,52,775,227,2014-10-01T08:00:00,8,28105053,197518
OK,222,54,775,222,2014-10-01T08:05:00,3,28105498,197518
OK,217,55,775,217,2014-10-01T08:10:00,3,28105938,197518
OK,243,49,775,243,2014-10-01T08:15:00,6,28106387,197518
OK,231,51,775,231,2014-10-01T08:20:00,6,28107214,197518
OK,223,53,775,223,2014-10-01T08:30:00,1,28107662,197518
OK,194,61,775,194,2014-10-01T08:35:00,2,28108111,197518
OK,213,56,775,213,2014-10-01T08:40:00,6,28108550,197518
OK,227,52,775,227,2014-10-01T08:45:00,8,28108999,197518
OK,230,52,775,230,2014-10-01T08:50:00,5,28109427,197518
OK,202,59,775,202,2014-10-01T09:00:00,7,28110219,197518
OK,201,59,775,201,2014-10-01T09:05:00,7,28110666,197518
OK,192,62,775,192,2014-10-01T09:10:00,4,28111091,197518
OK,225,53,775,225,2014-10-01T09:20:00,4,28111969,197518
OK,234,51,775,234,2014-10-01T09:30:00,4,28112759,197518
OK,219,54,775,219,2014-10-01T09:40:00,3,28113632,197518
OK,196,61,775,196,2014-10-01T09:50:00,6,28114513,197518
OK,190,63,775,190,2014-10-01T10:00:00,2,28115316,197518
OK,187,64,775,187,2014-10-01T10:05:00,1,28115764,197518
OK,188,63,775,188,2014-10-01T10:10:00,2,28116177,197518
OK,196,61,775,196,2014-10-01T10:20:00,1,28117034,197518
OK,203,59,775,203,2014-10-01T10:25:00,1,28117480,197518
OK,200,59,775,200,2014-10-01T10:30:00,5,28117908,197518
OK,199,60,775,199,2014-10-01T10:35:00,4,28118357,197518
OK,220,54,775,220,2014-10-01T10:40:00,3,28118802,197518
OK,220,54,775,220,2014-10-01T10:45:00,3,28119249,197518
OK,416,28,775,416,2014-10-01T10:50:00,1,28119693,197518
OK,203,59,775,203,2014-10-01T10:55:00,5,28120141,197518
OK,203,59,775,203,2014-10-01T11:00:00,5,28120589,197518
OK,233,51,775,233,2014-10-01T11:10:00,2,28121421,197518
OK,238,50,775,238,2014-10-01T11:20:00,1,28122308,197518
OK,204,58,775,204,2014-10-01T11:30:00,3,28123198,197518
OK,186,64,775,186,2014-10-01T11:40:00,4,28124079,197518
OK,203,59,775,203,2014-10-01T11:50:00,3,28124930,197518
OK,206,58,775,206,2014-10-01T11:55:00,3,28125808,197518
OK,206,58,775,206,2014-10-01T12:00:00,1,28126174,197518
OK,198,60,775,198,2014-10-01T12:05:00,1,28126609,197518
OK,198,60,775,198,2014-10-01T12:10:00,3,28127058,197518
OK,245,48,775,245,2014-10-01T12:20:00,4,28127507,197518
OK,219,54,775,219,2014-10-01T12:30:00,6,28128384,197518
OK,204,58,775,204,2014-10-01T12:35:00,2,28129268,197518
OK,204,58,775,204,2014-10-01T12:40:00,0,28129710,197518
OK,241,49,775,241,2014-10-01T12:50:00,5,28130151,197518
OK,258,46,775,258,2014-10-01T12:55:00,3,28131028,197518
OK,229,52,775,229,2014-10-01T13:00:00,3,28131474,197518
OK,222,54,775,222,2014-10-01T13:05:00,4,28131914,197518
OK,205,58,775,205,2014-10-01T13:10:00,3,28132357,197518
OK,216,55,775,216,2014-10-01T13:15:00,3,28132800,197518
OK,216,55,775,216,2014-10-01T13:20:00,3,28133238,197518
OK,192,62,775,192,2014-10-01T13:25:00,4,28133686,197518
OK,193,62,775,193,2014-10-01T13:30:00,2,28134126,197518
OK,199,60,775,199,2014-10-01T13:35:00,1,28134574,197518
OK,199,60,775,199,2014-10-01T13:40:00,3,28135000,197518
OK,206,58,775,206,2014-10-01T13:45:00,4,28135442,197518
OK,195,61,775,195,2014-10-01T13:50:00,4,28135881,197518
OK,199,60,775,199,2014-10-01T13:55:00,5,28136328,197518
OK,199,60,775,199,2014-10-01T14:00:00,6,28136769,197518
OK,225,53,775,225,2014-10-01T14:10:00,4,28137217,197518
OK,219,54,775,219,2014-10-01T14:15:00,4,28138100,197518
OK,201,59,775,201,2014-10-01T14:20:00,3,28138533,197518
OK,224,53,775,224,2014-10-01T14:25:00,3,28138977,197518
OK,224,53,775,224,2014-10-01T14:30:00,1,28139395,197518
OK,224,53,775,224,2014-10-01T14:35:00,0,28139837,197518
OK,214,56,775,214,2014-10-01T14:40:00,4,28140282,197518
OK,214,56,775,214,2014-10-01T14:45:00,5,28140728,197518
OK,319,37,775,319,2014-10-01T14:50:00,3,28141161,197518
OK,213,56,775,213,2014-10-01T15:00:00,1,28141603,197518
OK,214,56,775,214,2014-10-01T15:10:00,4,28142480,197518
OK,243,49,775,243,2014-10-01T15:20:00,1,28143356,197518
OK,245,48,775,245,2014-10-01T15:30:00,2,28144253,197518
OK,209,57,775,209,2014-10-01T15:35:00,4,28145092,197518
OK,214,56,775,214,2014-10-01T15:40:00,5,28145537,197518
OK,201,59,775,201,2014-10-01T15:50:00,2,28145986,197518
OK,183,65,775,183,2014-10-01T15:55:00,3,28146435,197518
OK,233,51,775,233,2014-10-01T16:00:00,3,28146884,197518
OK,316,37,775,316,2014-10-01T16:05:00,1,28147292,197518
OK,218,55,775,218,2014-10-01T16:10:00,1,28147736,197518
OK,188,63,775,188,2014-10-01T16:20:00,9,28148586,197518
OK,299,40,775,299,2014-10-01T16:30:00,4,28149474,197518
OK,222,54,775,222,2014-10-01T16:40:00,3,28150349,197518
OK,189,63,775,189,2014-10-01T16:50:00,4,28151216,197518
OK,201,59,775,201,2014-10-01T16:55:00,3,28151665,197518
OK,201,59,775,201,2014-10-01T17:00:00,1,28152114,197518
OK,201,59,775,201,2014-10-01T17:05:00,0,28152561,197518
OK,201,59,775,201,2014-10-01T17:10:00,0,28153009,197518
OK,196,61,775,196,2014-10-01T17:20:00,1,28153456,197518
OK,196,61,775,196,2014-10-01T17:30:00,0,28154315,197518
OK,177,67,775,177,2014-10-01T17:35:00,1,28154764,197518
OK,216,55,775,216,2014-10-01T17:40:00,1,28155206,197518
OK,186,64,775,186,2014-10-01T17:50:00,3,28156072,197518
OK,178,67,775,178,2014-10-01T17:55:00,1,28156521,197518
OK,178,67,775,178,2014-10-01T18:00:00,1,28157403,197518
OK,178,67,775,178,2014-10-01T18:10:00,0,28157837,197518
OK,178,67,775,178,2014-10-01T18:15:00,0,28158286,197518
OK,178,67,775,178,2014-10-01T18:20:00,0,28159173,197518
OK,178,67,775,178,2014-10-01T18:25:00,0,28159515,197518
OK,178,67,775,178,2014-10-01T18:30:00,0,28159957,197518
OK,201,59,775,201,2014-10-01T18:40:00,3,28160406,197518
OK,201,59,775,201,2014-10-01T18:50:00,0,28161293,197518
OK,187,64,775,187,2014-10-01T19:00:00,2,28162159,197518
OK,191,62,775,191,2014-10-01T19:05:00,5,28162607,197518
OK,154,77,775,154,2014-10-01T19:15:00,1,28163440,197518
OK,170,70,775,170,2014-10-01T19:20:00,2,28163889,197518
OK,186,64,775,186,2014-10-01T19:30:00,0,28164769,197518
OK,186,64,775,186,2014-10-01T19:35:00,0,28165643,197518
OK,201,59,775,201,2014-10-01T19:40:00,1,28166085,197518
OK,201,59,775,201,2014-10-01T19:45:00,1,28166448,197518
OK,184,65,775,184,2014-10-01T19:50:00,1,28166894,197518
OK,184,65,775,184,2014-10-01T19:55:00,0,28167327,197518
OK,184,65,775,184,2014-10-01T20:00:00,0,28167757,197518
OK,184,65,775,184,2014-10-01T20:05:00,0,28168205,197518
OK,188,63,775,188,2014-10-01T20:10:00,1,28168650,197518
OK,188,63,775,188,2014-10-01T20:15:00,0,28169099,197518
OK,188,63,775,188,2014-10-01T20:20:00,0,28169547,197518
OK,188,63,775,188,2014-10-01T20:25:00,0,28169977,197518
OK,188,63,775,188,2014-10-01T20:30:00,0,28170418,197518
OK,175,68,775,175,2014-10-01T20:35:00,1,28170866,197518
OK,175,68,775,175,2014-10-01T20:40:00,1,28171303,197518
OK,178,67,775,178,2014-10-01T20:45:00,2,28171749,197518
OK,178,67,775,178,2014-10-01T20:50:00,0,28172197,197518
OK,178,67,775,178,2014-10-01T20:55:00,0,28172643,197518
OK,178,67,775,178,2014-10-01T21:00:00,0,28173089,197518
OK,178,67,775,178,2014-10-01T21:05:00,0,28173538,197518
OK,178,67,775,178,2014-10-01T21:10:00,0,28173979,197518
OK,178,67,775,178,2014-10-01T21:15:00,0,28174428,197518
OK,178,67,775,178,2014-10-01T21:20:00,0,28174854,197518
OK,218,55,775,218,2014-10-01T21:25:00,1,28175250,197518
OK,218,55,775,218,2014-10-01T21:30:00,0,28175699,197518
OK,218,55,775,218,2014-10-01T21:35:00,0,28176148,197518
OK,218,55,775,218,2014-10-01T21:45:00,0,28176597,197518
OK,218,55,775,218,2014-10-01T21:50:00,0,28177393,197518
OK,218,55,775,218,2014-10-01T21:55:00,0,28177839,197518
OK,218,55,775,218,2014-10-01T22:00:00,0,28178288,197518
OK,218,55,775,218,2014-10-01T22:05:00,0,28178736,197518
OK,218,55,775,218,2014-10-01T22:10:00,0,28179177,197518
OK,218,55,775,218,2014-10-01T22:15:00,0,28179614,197518
OK,218,55,775,218,2014-10-01T22:20:00,0,28180059,197518
OK,218,55,775,218,2014-10-01T22:25:00,0,28180459,197518
OK,218,55,775,218,2014-10-01T22:30:00,0,28180906,197518
OK,218,55,775,218,2014-10-01T22:35:00,0,28181330,197518
OK,218,55,775,218,2014-10-01T22:40:00,0,28181778,197518
OK,218,55,775,218,2014-10-01T22:45:00,0,28182225,197518
OK,218,55,775,218,2014-10-01T22:50:00,0,28182674,197518
OK,218,55,775,218,2014-10-01T22:55:00,0,28183091,197518
OK,117,102,775,117,2014-10-01T23:00:00,1,28183524,197518
OK,135,88,775,135,2014-10-01T23:05:00,2,28183969,197518
OK,154,77,775,154,2014-10-01T23:10:00,0,28184418,197518
OK,192,62,775,192,2014-10-01T23:15:00,1,28184853,197518
OK,192,62,775,192,2014-10-01T23:20:00,0,28185301,197518
OK,192,62,775,192,2014-10-01T23:25:00,0,28185732,197518
OK,192,62,775,192,2014-10-01T23:30:00,0,28186124,197518
OK,192,62,775,192,2014-10-01T23:35:00,0,28186573,197518
OK,192,62,775,192,2014-10-01T23:40:00,0,28186971,197518
OK,192,62,775,192,2014-10-01T23:45:00,0,28187413,197518
OK,192,62,775,192,2014-10-01T23:50:00,0,28187862,197518
OK,192,62,775,192,2014-10-01T23:55:00,0,28188303,197518
OK,192,62,775,192,2014-10-02T00:00:00,0,28188739,197518
OK,192,62,775,192,2014-10-02T00:10:00,0,28189188,197518
OK,192,62,775,192,2014-10-02T00:20:00,0,28190059,197518
OK,192,62,775,192,2014-10-02T00:25:00,0,28190861,197518
OK,192,62,775,192,2014-10-02T00:35:00,0,28191310,197518
OK,192,62,775,192,2014-10-02T00:45:00,0,28192065,197518
OK,192,62,775,192,2014-10-02T00:50:00,0,28192944,197518
OK,192,62,775,192,2014-10-02T00:55:00,0,28193311,197518
OK,192,62,775,192,2014-10-02T01:00:00,0,28193758,197518
OK,192,62,775,192,2014-10-02T01:10:00,0,28194207,197518
OK,192,62,775,192,2014-10-02T01:15:00,0,28194656,197518
OK,192,62,775,192,2014-10-02T01:20:00,0,28195341,197518
OK,192,62,775,192,2014-10-02T01:30:00,0,28195790,197518
OK,192,62,775,192,2014-10-02T01:40:00,0,28196523,197518
OK,192,62,775,192,2014-10-02T01:45:00,0,28197395,197518
OK,192,62,775,192,2014-10-02T01:50:00,0,28197844,197518
OK,192,62,775,192,2014-10-02T02:00:00,0,28198291,197518
OK,192,62,775,192,2014-10-02T02:05:00,0,28198740,197518
OK,192,62,775,192,2014-10-02T02:10:00,0,28199558,197518
OK,192,62,775,192,2014-10-02T02:15:00,0,28199996,197518
OK,192,62,775,192,2014-10-02T02:20:00,0,28200439,197518
OK,192,62,775,192,2014-10-02T02:25:00,0,28200888,197518
OK,192,62,775,192,2014-10-02T02:30:00,0,28201320,197518
OK,192,62,775,192,2014-10-02T02:45:00,0,28202217,197518
OK,192,62,775,192,2014-10-02T02:50:00,0,28202661,197518
OK,192,62,775,192,2014-10-02T02:55:00,0,28203107,197518
OK,192,62,775,192,2014-10-02T03:00:00,0,28203545,197518
OK,298,40,775,298,2014-10-02T03:10:00,1,28203991,197518
OK,220,54,775,220,2014-10-02T03:25:00,2,28204440,197518
OK,220,54,775,220,2014-10-02T03:35:00,0,28204889,197518
OK,220,54,775,220,2014-10-02T03:40:00,0,28205765,197518
OK,191,62,775,191,2014-10-02T03:45:00,0,28206151,197518
OK,180,66,775,180,2014-10-02T04:00:00,1,28207045,197518
OK,180,66,775,180,2014-10-02T04:10:00,0,28207913,197518
OK,239,50,775,239,2014-10-02T04:20:00,4,28208789,197518
OK,225,53,775,225,2014-10-02T04:30:00,4,28209676,197518
OK,230,52,775,230,2014-10-02T04:40:00,2,28210548,197518
OK,197,60,775,197,2014-10-02T04:45:00,0,28211419,197518
OK,197,60,775,197,2014-10-02T04:50:00,0,28211798,197518
OK,186,64,775,186,2014-10-02T05:00:00,0,28212244,197518
OK,239,50,775,239,2014-10-02T05:05:00,3,28212693,197518
OK,256,46,775,256,2014-10-02T05:10:00,1,28213122,197518
OK,209,57,775,209,2014-10-02T05:15:00,2,28213571,197518
OK,209,57,775,209,2014-10-02T05:20:00,2,28214009,197518
OK,252,47,775,252,2014-10-02T05:30:00,1,28214871,197518
OK,245,48,775,245,2014-10-02T05:40:00,8,28215736,197518
OK,252,47,775,252,2014-10-02T05:45:00,0,28216185,197518
OK,252,47,775,252,2014-10-02T05:50:00,0,28216964,197518
OK,267,44,775,267,2014-10-02T06:00:00,9,28217411,197518
OK,254,47,775,254,2014-10-02T06:05:00,5,28217859,197518
OK,233,51,775,233,2014-10-02T06:10:00,2,28218299,197518
OK,245,48,775,245,2014-10-02T06:15:00,17,28219168,197518
OK,241,49,775,241,2014-10-02T06:20:00,16,28219549,197518
OK,237,50,775,237,2014-10-02T06:30:00,8,28219990,197518
OK,207,57,775,207,2014-10-02T06:40:00,2,28220873,197518
OK,219,54,775,219,2014-10-02T06:45:00,4,28221542,197518
OK,209,57,775,209,2014-10-02T07:00:00,5,28222134,197518
OK,205,58,775,205,2014-10-02T07:10:00,7,28222583,197518
OK,200,59,775,200,2014-10-02T07:15:00,2,28223452,197518
OK,179,66,775,179,2014-10-02T07:20:00,0,28223897,197518
OK,221,54,775,221,2014-10-02T07:25:00,3,28224254,197518
OK,256,46,775,256,2014-10-02T07:30:00,2,28224701,197518
OK,206,58,775,206,2014-10-02T07:40:00,0,28225150,197518
OK,199,60,775,199,2014-10-02T07:50:00,3,28225921,197518
OK,205,58,775,205,2014-10-02T08:00:00,1,28226811,197518
OK,265,45,775,265,2014-10-02T08:10:00,0,28227675,197518
OK,234,51,775,234,2014-10-02T08:20:00,1,28228483,197518
OK,238,50,775,238,2014-10-02T08:30:00,0,28229342,197518
OK,218,55,775,218,2014-10-02T08:40:00,0,28230141,197518
OK,213,56,775,213,2014-10-02T08:50:00,4,28230956,197518
OK,197,60,775,197,2014-10-02T08:55:00,0,28231402,197518
OK,206,58,775,206,2014-10-02T09:00:00,4,28231828,197518
OK,206,58,775,206,2014-10-02T09:10:00,0,28232619,197518
OK,188,63,775,188,2014-10-02T09:20:00,0,28233068,197518
OK,218,55,775,218,2014-10-02T09:30:00,0,28233941,197518
OK,218,55,775,218,2014-10-02T09:40:00,0,28234723,197518
OK,212,56,775,212,2014-10-02T09:45:00,4,28235599,197518
OK,181,66,775,181,2014-10-02T09:50:00,1,28236047,197518
OK,184,65,775,184,2014-10-02T10:00:00,1,28236489,197518
OK,184,65,775,184,2014-10-02T10:05:00,0,28237340,197518
OK,202,59,775,202,2014-10-02T10:10:00,3,28237788,197518
OK,207,57,775,207,2014-10-02T10:20:00,2,28238236,197518
OK,217,55,775,217,2014-10-02T10:25:00,4,28239125,197518
OK,217,55,775,217,2014-10-02T10:30:00,0,28239563,197518
OK,200,59,775,200,2014-10-02T10:35:00,2,28240004,197518
OK,208,57,775,208,2014-10-02T10:40:00,3,28240451,197518
OK,207,57,775,207,2014-10-02T10:50:00,2,28240897,197518
OK,215,55,775,215,2014-10-02T10:55:00,5,28241346,197518
OK,216,55,775,216,2014-10-02T11:00:00,3,28242193,197518
OK,207,57,775,207,2014-10-02T11:10:00,7,28242622,197518
OK,200,59,775,200,2014-10-02T11:15:00,6,28243071,197518
OK,207,57,775,207,2014-10-02T11:20:00,4,28243520,197518
OK,246,48,775,246,2014-10-02T11:25:00,0,28244270,197518
OK,246,48,775,246,2014-10-02T11:30:00,0,28244712,197518
OK,192,62,775,192,2014-10-02T11:40:00,1,28245161,197518
OK,192,62,775,192,2014-10-02T11:45:00,0,28246016,197518
OK,201,59,775,201,2014-10-02T11:50:00,3,28246456,197518
OK,193,62,775,193,2014-10-02T11:55:00,2,28246902,197518
OK,205,58,775,205,2014-10-02T12:00:00,1,28247349,197518
OK,205,58,775,205,2014-10-02T12:05:00,1,28247785,197518
OK,205,58,775,205,2014-10-02T12:10:00,0,28248227,197518
OK,196,61,775,196,2014-10-02T12:20:00,2,28248676,197518
OK,234,51,775,234,2014-10-02T12:25:00,5,28249546,197518
OK,229,52,775,229,2014-10-02T12:30:00,1,28249973,197518
OK,194,61,775,194,2014-10-02T12:35:00,3,28250363,197518
OK,215,55,775,215,2014-10-02T12:45:00,4,28251143,197518
OK,187,64,775,187,2014-10-02T13:20:00,3,28251688,197518
OK,206,58,775,206,2014-10-02T13:30:00,2,28252272,197518
OK,206,58,775,206,2014-10-02T13:35:00,0,28252714,197518
OK,206,58,775,206,2014-10-02T13:40:00,0,28253131,197518
OK,248,48,775,248,2014-10-02T13:50:00,3,28253580,197518
OK,191,62,775,191,2014-10-02T13:55:00,2,28254306,197518
OK,218,55,775,218,2014-10-02T14:10:00,2,28254883,197518
OK,216,55,775,216,2014-10-02T14:15:00,6,28255332,197518
OK,216,55,775,216,2014-10-02T14:20:00,6,28255762,197518
OK,196,61,775,196,2014-10-02T14:25:00,1,28256209,197518
OK,212,56,775,212,2014-10-02T14:30:00,2,28256637,197518
OK,192,62,775,192,2014-10-02T14:35:00,3,28257086,197518
OK,192,62,775,192,2014-10-02T14:40:00,3,28257527,197518
OK,229,52,775,229,2014-10-02T14:45:00,5,28257975,197518
OK,196,61,775,196,2014-10-02T14:50:00,5,28258408,197518
OK,195,61,775,195,2014-10-02T14:55:00,3,28258854,197518
OK,239,50,775,239,2014-10-02T15:00:00,1,28259303,197518
OK,239,50,775,239,2014-10-02T15:05:00,0,28259750,197518
OK,213,56,775,213,2014-10-02T15:10:00,3,28260184,197518
OK,228,52,775,228,2014-10-02T15:15:00,2,28260632,197518
OK,213,56,775,213,2014-10-02T15:20:00,0,28261072,197518
OK,191,62,775,191,2014-10-02T15:25:00,3,28261454,197518
OK,196,61,775,196,2014-10-02T15:30:00,2,28261884,197518
OK,201,59,775,201,2014-10-02T15:35:00,0,28262331,197518
OK,201,59,775,201,2014-10-02T15:40:00,0,28262777,197518
OK,213,56,775,213,2014-10-02T15:45:00,3,28263215,197518
OK,213,56,775,213,2014-10-02T15:50:00,3,28263656,197518
OK,213,56,775,213,2014-10-02T15:55:00,0,28264058,197518
OK,213,56,775,213,2014-10-02T16:00:00,0,28264507,197518
OK,214,56,775,214,2014-10-02T16:05:00,2,28264945,197518
OK,201,59,775,201,2014-10-02T16:10:00,2,28265385,197518
OK,213,56,775,213,2014-10-02T16:15:00,1,28265781,197518
OK,213,56,775,213,2014-10-02T16:20:00,0,28266230,197518
OK,213,56,775,213,2014-10-02T16:25:00,0,28266679,197518
OK,213,56,775,213,2014-10-02T16:30:00,0,28267005,197518
OK,213,56,775,213,2014-10-02T16:35:00,0,28267451,197518
OK,213,56,775,213,2014-10-02T16:40:00,0,28267900,197518
OK,359,33,775,359,2014-10-02T16:45:00,0,28268342,197518
OK,359,33,775,359,2014-10-02T16:50:00,0,28268791,197518
OK,219,54,775,219,2014-10-02T16:55:00,1,28269240,197518
OK,219,54,775,219,2014-10-02T17:00:00,1,28269675,197518
OK,189,63,775,189,2014-10-02T17:05:00,1,28270124,197518
OK,189,63,775,189,2014-10-02T17:10:00,0,28270558,197518
OK,189,63,775,189,2014-10-02T17:15:00,0,28271007,197518
OK,189,63,775,189,2014-10-02T17:20:00,0,28271437,197518
OK,189,63,775,189,2014-10-02T17:25:00,0,28271885,197518
OK,223,53,775,223,2014-10-02T17:30:00,1,28272321,197518
OK,223,53,775,223,2014-10-02T17:35:00,0,28272762,197518
OK,223,53,775,223,2014-10-02T17:40:00,0,28273210,197518
OK,171,70,775,171,2014-10-02T17:45:00,2,28273656,197518
OK,171,70,775,171,2014-10-02T17:55:00,0,28274105,197518
OK,171,70,775,171,2014-10-02T18:00:00,0,28274879,197518
OK,198,60,775,198,2014-10-02T18:05:00,1,28275318,197518
OK,198,60,775,198,2014-10-02T18:10:00,0,28275763,197518
OK,198,60,775,198,2014-10-02T18:15:00,0,28276209,197518
OK,189,63,775,189,2014-10-02T18:20:00,3,28276605,197518
OK,175,68,775,175,2014-10-02T18:30:00,0,28277054,197518
OK,211,56,775,211,2014-10-02T18:40:00,0,28277503,197518
OK,211,56,775,211,2014-10-02T18:45:00,0,28278300,197518
OK,170,70,775,170,2014-10-02T19:00:00,0,28278749,197518
OK,170,70,775,170,2014-10-02T19:05:00,0,28279198,197518
OK,170,70,775,170,2014-10-02T19:10:00,0,28279643,197518
OK,170,70,775,170,2014-10-02T19:15:00,0,28280084,197518
OK,170,70,775,170,2014-10-02T19:20:00,0,28280531,197518
OK,174,68,775,174,2014-10-02T19:25:00,0,28280935,197518
OK,174,68,775,174,2014-10-02T19:35:00,0,28281833,197518
OK,177,67,775,177,2014-10-02T19:40:00,4,28282264,197518
OK,159,75,775,159,2014-10-02T19:45:00,0,28282713,197518
OK,159,75,775,159,2014-10-02T19:50:00,0,28283160,197518
OK,159,75,775,159,2014-10-02T19:55:00,0,28283590,197518
OK,159,75,775,159,2014-10-02T20:00:00,0,28283960,197518
OK,159,75,775,159,2014-10-02T20:10:00,0,28284409,197518
OK,159,75,775,159,2014-10-02T20:15:00,0,28285192,197518
OK,159,75,775,159,2014-10-02T20:20:00,0,28285628,197518
OK,159,75,775,159,2014-10-02T20:25:00,0,28286043,197518
OK,153,78,775,153,2014-10-02T20:35:00,0,28286895,197518
OK,153,78,775,153,2014-10-02T20:40:00,0,28287326,197518
OK,0,0,775,0,2014-10-03T22:35:00,0,28291606,197518
OK,0,0,775,0,2014-10-03T22:40:00,0,28292055,197518
OK,0,0,775,0,2014-10-03T22:45:00,0,28292504,197518
OK,0,0,775,0,2014-10-03T22:50:00,0,28292950,197518
OK,0,0,775,0,2014-10-03T22:55:00,0,28293399,197518
OK,0,0,775,0,2014-10-03T23:00:00,0,28293848,197518
OK,0,0,775,0,2014-10-03T23:05:00,0,28294277,197518
OK,0,0,775,0,2014-10-03T23:10:00,0,28294713,197518
OK,0,0,775,0,2014-10-03T23:15:00,0,28295153,197518
OK,0,0,775,0,2014-10-03T23:25:00,0,28295602,197518
OK,0,0,775,0,2014-10-03T23:30:00,0,28296045,197518
OK,0,0,775,0,2014-10-03T23:35:00,0,28296494,197518
OK,0,0,775,0,2014-10-03T23:40:00,0,28296897,197518
OK,0,0,775,0,2014-10-03T23:45:00,0,28297324,197518
OK,0,0,775,0,2014-10-03T23:50:00,0,28297773,197518
OK,0,0,775,0,2014-10-03T23:55:00,0,28298222,197518
OK,0,0,775,0,2014-10-04T00:00:00,0,28298599,197518
OK,0,0,775,0,2014-10-04T00:15:00,0,28299204,197518
OK,0,0,775,0,2014-10-04T00:20:00,0,28299652,197518